Regional Weather Roundup
Issued by NWS Grand Forks, ND

Home | Current Version | Previous Version | Graphics & Text | Print | Product List | Glossary On
Versions: 1 2 3 4 5 6 7 8 9 10 11 12 13 14 15 16 17 18 19 20 21 22 23 24 25 26 27 28 29 30 31 32 33 34 35 36 37 38 39 40 41 42 43 44 45 46 47 48 49 50
000
ASUS43 KFGF 280510
RWRFGF
PRAIRIE TO PINES  WEATHER ROUNDUP
NATIONAL WEATHER SERVICE EASTERN NORTH DAKOTA/GRAND FORKS ND
1200 AM CDT WED JUN 28 2017

 **SATELLITE DATA USED TO AUGMENT SKY COVER AT AUTOMATED STATIONS**
 *****  WEATHER ACROSS EASTERN NORTH DAKOTA  *****

CITY           SKY/WX    TMP DP  RH WIND       PRES   REMARKS
GRAND FORKS    FAIR      67  50  54 SE15      29.57F
GRAND FRKS AFB CLOUDY    65  49  55 SE12      29.57F
DEVILS LAKE    MOCLDY    68  54  60 SE10      29.57F
FARGO          FAIR      70  50  49 SE15G28   29.55F
WAHPETON ARPT  CLOUDY    68  46  45 SE15G22   29.57F
$$

 ***** WEATHER ACROSS CENTRAL AND WESTERN NORTH DAKOTA  *****

CITY           SKY/WX    TMP DP  RH WIND       PRES   REMARKS
BISMARCK       FAIR      67  65  93 NW6       29.53S
MINOT          FAIR      71  60  68 NW14      29.54R
JAMESTOWN      LGT RAIN  68  56  65 S9        29.48F
MINOT AFB      FAIR      70  60  71 NW15      29.53S
GARRISON         N/A     68  61  78 N7        29.56R
WILLISTON      FAIR      66  57  72 NW7       29.67R
DICKINSON      FAIR      67  54  63 NW10      29.64S
HETTINGER      FAIR      68  54  60 N23       29.65F
$$

 *****  OTHER AIRPORT OBSERVATIONS IN OUR AREA  *****

CITY           SKY/WX    TMP DP  RH WIND       PRES   REMARKS
WALHALLA       NOT AVBL
GRAFTON AIRPOR CLOUDY    66  48  52 SE15G21   29.59F
VALLEY CITY AR FAIR      70  50  49 SE14G24   29.53F
CANDO          NOT AVBL
CAVALIER APRT  FAIR      68  46  45 S13G18    29.58F
GWINNER        CLOUDY    70  54  56 SE17      29.53F
SHEYENNE NWR     N/A     72  50  46 SE15      29.95S
ROLLA            N/A     64  54  68 SE5       29.57F
 ***** THE ABOVE OBSERVATIONS ARE NON NWS ARE NOT QUALITY
       CONTROLLED AND MAY MIS-REPORT RAIN FOR SNOW...
$$

  *****  WEATHER ACROSS NORTHERN MINNESOTA  *****

CITY           SKY/WX    TMP DP  RH WIND       PRES   REMARKS
FLAG ISLAND    MOCLDY    66  55  68 S15       29.68F
WARROAD        MOCLDY    64  52  63 E6        29.69S
ROSEAU         MOCLDY    66  50  55 S13       29.67F
HALLOCK        CLOUDY    64  48  55 SE10      29.60F
THF RVR FALLS  CLOUDY    67  48  50 SE15      29.66F
BAUDETTE       CLOUDY    61  49  64 SE8       29.72F
WASKISH        MOCLDY    61  52  72 SE3       29.74F
CROOKSTON      FAIR      66  48  52 SE13      29.62F
STEPHEN NDAWN    N/A     66  46  48 SE12        N/A
GREENBUSH NDAW   N/A     66  48  52 SE10        N/A
$$
  *****  WEATHER ACROSS CENTRAL AND WEST MINNESOTA  *****

CITY           SKY/WX    TMP DP  RH WIND       PRES   REMARKS
FOSSTON        CLOUDY    64  46  52 SE9       29.68F
BEMIDJI        LGT RAIN  63  49  58 S12       29.74F
PARK RAPIDS    CLOUDY    62  49  62 SE10      29.73F
ELBOW LAKE     FAIR      69  50  50 SE21      29.64F
WADENA         LGT RAIN  63  52  67 SE10      29.72F
DETROIT LAKES  FAIR      64  50  59 SE16G24   29.66F
MOORHEAD       FAIR      70  48  46 SE14G21   29.58F
FERGUS FALLS   MOCLDY    66  52  59 SE8       29.61F
MORRIS MN      FAIR      70  48  46 SE21G26   29.64F
STAPLES        CLOUDY    61  50  67 E5        29.74F
$$
  *****  WEATHER ELSEWHERE ACROSS MINNESOTA  *****

CITY           SKY/WX    TMP DP  RH WIND       PRES   REMARKS
DULUTH         FAIR      59  46  62 S9        29.83S
INTRNTL FALLS  FAIR      56  46  69 SE5       29.76R
ELY            FAIR      57  45  62 S5        29.81S
CLOQUET        FAIR      59  43  55 S3        29.83S
WHEATON        FAIR      70  46  43 SE20G25   29.59F
BRAINERD       LGT RAIN  60  51  72 SE8       29.78S
HIBBING        FAIR      47  45  93 CALM      29.80S
ALEXANDRIA     LGT RAIN  63  54  72 S16G23    29.71F
SAINT CLOUD    FAIR      62  54  74 S6        29.76F
MINNEAPOLIS    CLOUDY    70  45  40 S9        29.82F
$$

  *****  WEATHER ACROSS SOUTH DAKOTA  *****

CITY           SKY/WX    TMP DP  RH WIND       PRES   REMARKS
SIOUX FALLS    CLOUDY    71  67  87 S15       29.67F THUNDER
BROOKINGS      MOCLDY    71  62  73 SE12      29.64F
WATERTOWN      FAIR      70  60  70 S14       29.59F
HURON          FAIR      75  66  73 S14       29.55F
SISSETON         N/A     70  55  59 SE20G26   29.55F
ABERDEEN       FAIR      75  64  68 S15       29.50F
MITCHELL       MOCLDY    74  65  73 SW13G25   29.60F
PIERRE         FAIR      73  54  51 W25G39    29.47F
MOBRIDGE       FAIR      77  54  44 SW12      29.49R
RAPID CITY     MOCLDY    65  51  60 NW13      29.74R
$$

  *****  SOME WEATHER IN NEARBY STATES *****

CITY           SKY/WX    TMP DP  RH WIND       PRES   REMARKS
GLASGOW MT     FAIR      63  43  48 NE9       29.73R
GREAT FALLS MT FAIR      60  45  57 S6        29.77R
CHEYENNE WY    FAIR      62  39  42 N7        29.97R
SCOTTSBLUFF NE FAIR      61  52  72 NW8       29.82R
OMAHA NE       MOCLDY    75  65  70 SE22G28   29.75F
DES MOINES IA  CLOUDY    71  57  61 SE10      29.87F
DAVENPORT IA   NOT AVBL
CHICAGO IL     FAIR      65  46  50 S8        30.04R
EAU CLAIRE WI  FAIR      62  48  60 S8        29.88S
LA CROSSE WI   FAIR      69  49  48 S10       29.90F
$$

  *****  SOME NATIONAL WEATHER *****

CITY           SKY/WX    TMP DP  RH WIND       PRES   REMARKS
LA GUARDIA NY  FAIR      68  52  56 NW15      30.02R
RALEIGH NC     FAIR      61  57  87 NE3       30.11S
ATLANTA GA     FAIR      72  54  53 N6        30.11R
NEW ORLEANS LA FAIR      78  66  66 CALM      30.00S
OKLAHOMA CITY  FAIR      76  65  68 S16       29.94R
ALBUQUERQUE NM FAIR      77  43  29 S12       30.00R
SALT LAKE CITY FAIR      75  36  24 S8        29.85S
LOS ANGELES CA FAIR      66  59  78 SW6       29.86R
BOISE ID       MOCLDY    78  43  28 CALM      29.76R
SEATTLE WA     FAIR      65  51  60 SW3       29.98R
$$

*** WEATHER ACROSS MANITOBA...SASKATCHEWAN AND ONTARIO ***
                ***ONTARIO***

CITY           SKY/WX    TMP DP  RH WIND       PRES   REMARKS
GERALDTON      CLEAR     55  46  71 SW6       29.77S
THUNDER BAY    MOCLDY    57  50  77 NW2       29.81S
SIOUX LOOKOUT  PTCLDY    50  48  93 SE5       29.74F
TORONTO        PTCLDY    55  46  71 W8        30.02R
BIG TROUT LK   CLOUDY    48  45  87 NE8       29.81R
PICKLE LAKE    NOT AVBL
DRYDEN         CLEAR     61  50  67 S7        29.74F
KENORA         MOCLDY    63  48  59 S6        29.71S
$$
                *** MANITOBA***

CITY           SKY/WX    TMP DP  RH WIND       PRES   REMARKS
BRANDON        MOCLDY    66  59  77 E5        29.53S
DAUPHIN        CLOUDY    66  61  82 S6        29.51R
ISLAND LAKE    MOCLDY    54  46  76 NE7       29.78S
PILOT MOUND      N/A     64  50  59 SE14        N/A
THE PAS        LGT RAIN  59  50  72 E15G22    29.52F
THOMPSON       CLOUDY    54  41  62 E9G22     29.80F
WINNIPEG       CLOUDY    68  48  49 SE16G25   29.60S
LYNN LAKE      CLEAR     52  41  66 E13G20    29.77S HAZE
CHURCHILL      FOG       39  39 100 E7        30.01R VSB 1/8
GILLAM         CLEAR     43  34  70 E10       29.92R
$$
                ***SASKATCHEWAN***

CITY           SKY/WX    TMP DP  RH WIND       PRES   REMARKS
ESTEVAN        MOCLDY    61  59  94 CALM      29.64R
KINDERSLEY     PTCLDY    57  43  58 N5        29.72R
LLOYDMINSTER   CLEAR     52  45  76 W12       29.70R
PRINCE ALBERT  PTCLDY    61  48  63 W13G20    29.60R
REGINA         CLEAR     54  43  66 NW10      29.66S
YORKTON        CLEAR     61  55  82 W8        29.56S
N. BATTLEFORD  CLEAR     54  43  66 W7        29.70R
LA RONGE       LGT RAIN  57  55  94 E3        29.58S
SASKATOON      PTCLDY    54  43  66 W7        29.68R
SWIFT CURRENT  CLEAR     55  39  54 N8        29.74S
$$
NOTE: THESE ARE AUTOMATED STATIONS WITH LIMITED QUALITY CONTROL
      "FAIR" INDICATES FEW OR NO CLOUDS BELOW 12,000 FEET WITH NO
      SIGNIFICANT WEATHER AND/OR OBSTRUCTIONS TO VISIBILITY.
      SKY/WX - SKY CONDITION AND SIGNIFICANT WEATHER.
      TMP - AIR TEMPERATURE.    DP   - DEWPOINT TEMPERATURE.
      RH  - RELATIVE HUMIDITY.  PRES - PRESSURE.
      HX  - HEAT INDEX.         WCI  - WIND CHILL INDEX.
$




USA.gov is the U.S. government's official web portal to all federal, state and local government web resources and services.